Regional Weather Roundup
Issued by NWS

Home | Current Version | Previous Version | Graphics & Text | Print | Product List | Glossary On
Versions: 1 2 3 4 5 6 7 8 9 10 11 12 13 14 15 16 17 18 19 20 21 22 23 24 25 26 27 28 29 30 31 32 33 34 35 36 37 38 39 40 41 42 43 44 45 46 47 48 49 50
000
ASUS45 KSLC 300610
RWRUT

UTAH REGIONAL WEATHER ROUNDUP
NATIONAL WEATHER SERVICE SALT LAKE CITY UT
1200 AM MDT SAT AUG 30 2014

UTZ001>011-023>025-300700-

NORTHERN UTAH

CITY           SKY/WX    TMP DP  RH WIND       PRES   REMARKS
HILL AFB       MOCLDY    74  40  29 SE12      29.99S
LOGAN          MOCLDY    60  56  86 N7        29.96F
OGDEN          MOCLDY    74  41  30 S14       29.95S
PROVO AIRPORT  MOCLDY    72  46  40 E8        30.00F
SALT LAKE CITY MOCLDY    77  40  26 S10       29.95S
VERNAL         PTCLDY    61  45  55 W9        30.11F
WENDOVER       MOCLDY    72  37  28 W5        29.91S
HEBER CITY     MOCLDY    59  45  58 SE5       30.12S
WEST JORDAN    PTCLDY    73  52  46 CALM      29.99F

$$

UTZ012>022-026-027-300700-

SOUTHERN UTAH

CITY           SKY/WX    TMP DP  RH WIND       PRES   REMARKS
BRYCE CANYON   CLEAR     49  43  80 SW7       30.29S
CEDAR CITY     CLEAR     67  35  30 S7        30.10F
MILFORD        CLEAR     74  34  23 S13       30.03S
MOAB/CYNLANDS  CLEAR     72  40  31 S6        30.03F
PRICE          MOCLDY    67  41  38 NE7       30.15F
ST GEORGE      MOCLDY    81  39  22 SE5       29.91S

$$

REGIONAL REPORTS     COLORADO/ARIZONA

CITY           SKY/WX    TMP DP  RH WIND       PRES   REMARKS
CRAIG, CO      CLEAR     54  49  83 CALM      30.19F
GRAND JUNCTION PTCLDY    62  51  67 SE6       30.09F
RIFLE          PTCLDY    59  48  67 SE8       30.17S
MONTROSE       CLEAR     62  46  55 SE12      30.20S
CORTEZ         CLEAR     54  46  74 E3        30.18S
PAGE, AZ       PTCLDY    76  34  21 CALM      30.02S
GRAND CANYON     N/A    N/A N/A N/A MISG        N/A
KINGMAN        CLEAR     75  35  23 CALM      29.96S
FLAGSTAFF      CLEAR     51  43  74 CALM      30.28S

$$

REGIONAL REPORTS    NEVADA/IDAHO/WYOMING

CITY           SKY/WX    TMP DP  RH WIND       PRES   REMARKS
LAS VEGAS, NV  PTCLDY    92  29  10 S13       29.78S
ELY            CLEAR     60  34  37 VRB3      30.12R
ELKO           MOCLDY    66  35  31 CALM      29.99F
POCATELLO, ID  CLOUDY    67  43  41 E3        29.95S
BURLEY         MOCLDY    62  52  69 W5        29.89F
EVANSTON, WY   MOCLDY    58  41  53 S8        30.19F
ROCK SPRINGS   PTCLDY    62  36  37 SW12      30.16F

$$



USA.gov is the U.S. government's official web portal to all federal, state and local government web resources and services.